www.pogodaiklimat.ru

Погода и климат >> Архив погоды >> Ирак >> Тикрит


ПОГОДА в Тикрите

  • Прогноз погоды в Тикрите
  • Монитор погоды в Тикрите

АРХИВ ПОГОДЫ в Тикрите

Время (UTC), дата Ветер
(напр.,м/с)
 
Видим.   Явления Облачность Т
(С)
Тd
(С)
f
(%)
Тe
(С)
Тes
(С)
Комфортность P
(гПа)
Po
(гПа)
Тmin
(С)
Tmax
(С)
R
(мм)
R24
(мм)
S
(см)
06 13.08 В 2 10 км 1/0
[Ci fib]
+41.0 +18.6 27 +44 +55 опасность
перегрева
1001.8 990.2 +30.7
09 13.08 В 2 10 км 4/0
[Ci sp]
+47.2 +16.9 18 +49 +67 опасность
перегрева
1001.6 990.2
12 13.08 В 1 10 км 6/0
[Ac trans Ci sp]
+50.4 +17.9 16 +53 +63 опасность
перегрева
1000.0 988.8
15 13.08 С 2 8000 м пыль 5/1 840 м
[Cu hum Ac trans]
+45.6 +15.6 18 +47 +47 опасность
перегрева
1000.6 989.2
18 13.08 В 3 10 км 1/0
[Ac trans]
+42.5 +14.1 19 +43 +43 опасность
перегрева
1002.4 990.9 +51.0
06 14.08 В 2 10 км 3/0
[Ac trans]
+39.8 +16.6 26 +42 +51 опасность
перегрева
1005.6 993.9 +31.5
09 14.08 В 3 10 км 3/0
[Ci sp]
+47.4 +15.5 16 +49 +64 опасность
перегрева
1005.0 993.6
12 14.08 ЮВ 2 10 км 3/0
[Ci sp]
+48.6 +13.8 14 +49 +60 опасность
перегрева
1003.6 992.3
15 14.08 Ю 2 10 км 1/0
[Ci fib]
+46.3 +13.5 15 +46 +47 опасность
перегрева
1003.3 991.9
18 14.08 ЮЗ 2 10 км 1/0
[Ac trans]
+39.8 +14.2 22 +40 +40 очень
душно
1004.6 992.9 +49.0
06 15.08 Ю 1 10 км 3/0
[Ci sp]
+40.4 +15.9 24 +42 +53 опасность
перегрева
1006.3 994.6 +32.4
09 15.08 С 2 10 км 4/0
[Ci sp]
+46.5 +16.6 18 +48 +66 опасность
перегрева
1005.8 994.4
12 15.08 ЮЗ 3 10 км ясно +46.6 +16.3 18 +49 +58 опасность
перегрева
1004.6 993.2
15 15.08 З 2 10 км 1/0
[Ci fib]
+44.8 +15.2 18 +46 +46 опасность
перегрева
1003.9 992.4
18 15.08 З 2 10 км 3/3 840 м
[Cu hum]
+39.0 +15.5 25 +40 +40 очень
душно
1005.6 993.9 +47.0
06 16.08 С 3 10 км ясно +34.8 +20.6 44 +42 +50 опасность
перегрева
1008.1 996.2 +31.6
12 16.08 СЗ 3 10 км ясно +43.1 +15.2 20 +44 +53 опасность
перегрева
1005.6 994.0
15 16.08 З 3 10 км ясно +41.2 +13.9 20 +41 +42 опасность
перегрева
1004.8 993.2
18 16.08 СЗ 2 10 км ясно +36.1 +12.2 24 +36 +36 очень
жарко
1006.5 994.7 +45.5
06 17.08 С 3 10 км ясно +32.2 +13.8 33 +34 +42 душно 1006.9 994.9 +27.0
09 17.08 СЗ 3 10 км ясно +38.4 +16.2 27 +40 +56 опасность
солнечного
удара
1006.0 994.3
12 17.08 СЗ 3 10 км ясно +40.5 +15.6 23 +42 +51 опасность
перегрева
1004.3 992.7
15 17.08 СЗ 2 10 км ясно +39.3 +16.0 26 +41 +42 опасность
перегрева
1003.3 991.6
18 17.08 СЗ 2 10 км ясно +35.5 +16.8 33 +38 +38 очень
душно
1004.1 992.3 +41.0
06 18.08 СЗ 2 10 км ясно +32.8 +19.5 46 +39 +49 очень
душно
1002.1 990.2 +29.4
09 18.08 СЗ 3 10 км ясно +40.1 +15.9 24 +42 +57 опасность
перегрева
1005.4 993.7
15 18.08 СЗ 2 10 км ясно +41.5 +13.0 19 +41 +42 опасность
перегрева
1004.6 993.0
18 18.08 СЗ 2 10 км ясно +36.0 +15.4 29 +38 +38 очень
душно
1005.3 993.5 +43.2
06 19.08 С 2 10 км ясно +36.8 +16.0 29 +39 +49 очень
душно
1010.0 998.2 +29.6
09 19.08 С 2 10 км ясно +43.5 +12.8 17 +43 +62 опасность
перегрева
1009.4 997.8
12 19.08 С 2 10 км ясно +44.5 +12.5 15 +44 +55 опасность
перегрева
1008.5 997.0
15 19.08 С 2 10 км ясно +42.4 +12.1 17 +42 +42 опасность
перегрева
1008.5 996.9
18 19.08 С 2 10 км ясно +37.0 +14.7 27 +38 +38 душно 1008.9 997.1 +44.5

 

Местоположение метеостанции Тикрит (Ирак): широта 34.57 долгота 43.70 высота над уровнем моря 107 м.

В архиве по умолчанию представлена погода в Тикрите за последнюю неделю. Архивные данные за месяц целиком и за предыдущие месяцы, начиная с января 2011 года, Вы можете получить, выбрав интересующий диапазон дат из раскрывающегося списка и нажав кнопку "Ввод!".


*Определитесь, кто Вы:
робот инопланетянин человек

Внимание! Время в таблицах - всемирное. Для получения местного времени необходимо прибавить поправку, которая равна 3 ч.

Смотрите также архив погоды в соседних городах и на ближайших метеорологических станциях:

Погода в Бейджи (Ирак) (45 км)
Погода в Тузе (Ирак) (93 км)
Погода в Хите (Ирак) (105 км)
Погода в Эль-Халисе (Ирак) (112 км)
Погода в Киркуке (Ирак) (119 км)
Погода в Эр-Рамади (Ирак) (129 км)
Погода в Махмуре (Ирак) (132 км)
Погода в Хадите (Ирак) (134 км)
Погода в Айн Аль-Тамаре (Ирак) (147 км)
Погода в Чамчамале (Ирак) (147 км)

Пояснения к столбцам:

Ветер - указаны скорость ветра в м/с - средняя за 10 мин, порывы в срок и между сроками (в фигурных скобках) и направление, откуда дует ветер: С - северный, СВ - северо-восточный, В - восточный, ЮВ - юго-восточный, Ю - южный, ЮЗ - юго-западный, З - западный, СЗ - северо-западный.
Видимость - горизонтальная дальность видимости в метрах или километрах. При видимости от 1 до 10 км при отсутствии осадков обычно наблюдается дымка, при ухудшении видимости до 1 км и менее - туман. В сухую погоду видимость может ухудшаться дымом, пылью или мглою.
Явления - указаны атмосферные явления, наблюдавшиеся в срок или в последний час перед сроком; фигурными скобками обозначены явления, наблюдавшиеся между сроками (за 1-3 часа до срока); квадратными скобками обозначены град или гололедные отложения с указанием их диаметра в мм.
Облачность - указаны через наклонную черту общая и нижняя облачность в баллах и высота нижней границы облаков в метрах; квадратными скобками обозначены формы облаков: Ci - перистые, Cs - перисто-слоистые, Cc - перисто-кучевые, Ac - высококучевые, As - высокослоистые, Sc - слоисто-кучевые, Ns - слоисто-дождевые, Cu - кучевые, Cb - кучево-дождевые. Подробнее классификацию облаков см. в Атласе облаков (PDF).
T - Температура воздуха - температура, измеренная на высоте 2 м над землей.
Td - Температура точки росы - температура, при понижении до которой содержащийся в воздухе водяной пар достигнет насыщения.
f - Относительная влажность воздуха - влажноcть воздуха, измеренная на высоте 2 м над землей.
Te - Эффективная температура - температура, которую ощущает одетый по сезону человек в тени. Характеристика душности погоды. При расчете учитывается влияние влажности воздуха и скорости ветра на теплоощущения человека.
Tes - Эффективная температура на солнце - температура, которую ощущает человек, с поправкой на солнечный нагрев. Характеристика знойности погоды. Зависит от высоты солнца над горизонтом, облачности и скорости ветра. Ночью, в пасмурную погоду, а также при ветре 12 м/с и более поправка равна нулю.
P - Атмосферное давление - приведенное к уровню моря атмосферное давление.
Po - Атмосферное давление - измеренное на уровне метеостанции атмосферное давление.
Tmin - Минимальная температура - минимум температуры воздуха на высоте 2 м над землей.
Tmax - Максимальная температура - максимум температуры воздуха на высоте 2 м над землей.
R - Количество осадков - Количество выпавших осадков за период времени, мм. При наведении курсора мыши на число - период времени, за который выпало указанное количество осадков.
R24 - Количество осадков - Количество выпавших осадков за 24 часа, мм.
S - Снежный покров - Высота снежного покрова, см. При наведении курсора мыши на число - состояние снежного покрова и степень покрытия местности в баллах.